This is the latest recevied weather packets stored in our database for station/object SQ6ELQ-11. If no packets are shown the sender has not sent any weather packets the latest 10 day(s).
| Time | Temp. | Humidity | Pressure | Rain* | Wind** | Luminosity | Snow |
|---|---|---|---|---|---|---|---|
| 1777646957 | 21.11° C | 19% | 1026.1 hPa | 0 mm | - | - | - |
| 1777645822 | 20.56° C | 20% | 1026.2 hPa | 0 mm | - | - | - |
| 1777644802 | 20.56° C | 20% | 1026.3 hPa | 0 mm | - | - | - |
| 1777643701 | 20.56° C | 20% | 1026.3 hPa | 0 mm | - | - | - |
| 1777642646 | 20.56° C | 23% | 1026.4 hPa | 0 mm | - | - | - |
| 1777641599 | 20° C | 27% | 1026.6 hPa | 0 mm | - | - | - |
| 1777640461 | 18.89° C | 27% | 1026.8 hPa | 0 mm | - | - | - |
| 1777639331 | 18.33° C | 30% | 1027 hPa | 0 mm | - | - | - |
| 1777638252 | 17.78° C | 31% | 1027 hPa | 0 mm | - | - | - |
| 1777637166 | 17.22° C | 32% | 1027.2 hPa | 0 mm | - | - | - |
| 1777636096 | 17.22° C | 32% | 1027.4 hPa | 0 mm | - | - | - |
| 1777635048 | 16.67° C | 32% | 1027.4 hPa | 0 mm | - | - | - |
| 1777633947 | 16.11° C | 33% | 1027.7 hPa | 0 mm | - | - | - |
| 1777632848 | 15.56° C | 33% | 1027.8 hPa | 0 mm | - | - | - |
| 1777631712 | 15.56° C | 33% | 1027.7 hPa | 0 mm | - | - | - |
| 1777630607 | 15° C | 33% | 1027.9 hPa | 0 mm | - | - | - |
| 1777629532 | 15° C | 33% | 1027.8 hPa | 0 mm | - | - | - |
| 1777628490 | 14.44° C | 33% | 1027.9 hPa | 0 mm | - | - | - |
| 1777627479 | 13.89° C | 34% | 1028.1 hPa | 0 mm | - | - | - |
| 1777626432 | 13.89° C | 35% | 1028.1 hPa | 0 mm | - | - | - |
| 1777625358 | 13.33° C | 35% | 1028.1 hPa | 0 mm | - | - | - |
| 1777624217 | 12.78° C | 35% | 1028.2 hPa | 0 mm | - | - | - |
| 1777623111 | 12.78° C | 35% | 1028.2 hPa | 0 mm | - | - | - |
| 1777622086 | 12.22° C | 36% | 1028.1 hPa | 0 mm | - | - | - |
| 1777621012 | 11.67° C | 37% | 1028.1 hPa | 0 mm | - | - | - |
* Rain latest hour (hover to see other rain measurements)
** Current wind speed in m/s (hover to see current wind gust speed)